COSMOS 2456 (730) 1 36111C 09070A 22225.99979167 .00000000 00000+0 00000+0 0 2258 2 36111 64.3649 119.0786 0003211 320.7756 222.2160 2.13099311 10 COSMOS 2457 (733) 1 36112C 09070B 22225.99979167 .00000000 00000+0 00000+0 0 2259 2 36112 64.3482 118.9530 0004996 158.5390 152.1948 2.13101432 16 GLONASS116 [COD] 1 36111C 09070A 22226.99979167 .00000000 00000+0 00000+0 0 2260 2 36111 64.3650 119.0441 0003237 322.9941 267.1546 2.13099379 18 GLONASS116 [NER] 1 36111C 09070A 22226.00000000 .00000000 00000+0 00000+0 0 2263 2 36111 64.3648 119.0785 0003249 321.6615 221.4899 2.13099349 14